User: anonymous   Login
Location: Unspecified
(0.0000°N, 0.0000°E)
Time: 07:40:35
(UTC+00:00)
Language:

AMOS 1 - Orbit

View from above orbital plane
View from above orbital plane
View from above satellite
View from above satellite

Ground track
Ground track

The orbit data is extracted from the following two-line orbital elements,

1 23865U 96030B   14297.22356457 -.00000157  00000-0  00000+0 0  1781
2 23865 005.3134 061.1855 0012615 099.3133 106.5869 00.97118489 67253
Epoch (UTC): 24 October 2014 05:21:55
Eccentricity: 0.0012615
inclination: 5.3134°
perigee height: 36639 km
apogee height: 36748 km
right ascension of ascending node: 61.1855°
argument of perigee: 99.3133°
revolutions per day: 0.97118489
mean anomaly at epoch: 106.5869°
orbit number at epoch: 6725

The dashed part of the orbit path shows where the satellite is in the earth's shadow,  

DLR